ECMWFFLT1_250_spd_021.txt.gz
Wind_Speed
73 75 75 76 78 80 81 83 85 87 89 90 91 93 94 96 99 100 101 102 104 105 106 107 108 108 108 109 109 109 110 113 114 114 114 113 113 113 113 114 114 114 114 113 112 113 115 116 117 116 114 112 110 109 109 108 107 105 104 104 104 105 105
71 72 73 73 74 76 78 80 81 83 84 85 86 88 90 92 95 96 98 100 101 102 103 104 106 106 107 108 108 108 109 111 113 113 113 112 112 112 112 113 114 114 115 114 112 113 115 117 117 116 114 112 110 108 107 106 106 104 103 103 103 103 103
69 70 70 71 72 74 75 77 78 79 80 81 82 84 86 89 91 93 94 96 97 99 100 101 102 103 103 104 106 106 107 108 110 111 111 111 111 111 111 111 112 114 114 113 113 114 115 117 117 116 114 112 109 107 105 105 104 103 103 102 101 101 101
68 68 68 69 70 71 72 73 74 75 76 76 78 80 82 85 87 89 90 91 93 95 96 97 98 99 99 100 101 102 103 104 106 108 108 109 110 109 109 110 110 111 112 112 113 114 115 116 117 115 113 111 108 106 105 105 104 103 102 102 101 100 101
65 66 66 67 67 68 69 70 71 72 72 73 74 76 78 80 82 84 85 87 88 90 92 93 94 96 96 96 96 97 98 99 102 104 104 105 106 106 105 106 106 107 108 110 112 114 114 115 115 114 113 111 109 107 106 105 104 104 103 102 101 101 101
62 63 64 64 65 66 66 67 68 68 69 70 71 72 74 75 77 79 80 81 83 85 87 89 90 91 92 92 91 92 94 95 97 99 100 101 102 102 101 100 98 99 102 105 109 112 112 112 113 112 112 111 109 108 106 104 104 103 102 102 101 101 102
58 59 60 61 62 63 63 64 65 66 67 67 68 68 69 70 72 73 74 75 77 79 81 82 83 85 86 86 86 87 90 92 93 95 96 97 98 98 97 94 90 90 93 97 102 106 107 107 108 109 109 109 108 106 104 102 102 100 99 99 100 101 102
54 55 57 58 59 59 60 61 62 63 64 65 65 65 65 66 67 68 69 70 73 75 76 77 77 78 79 79 81 84 86 89 91 93 94 94 94 94 92 89 87 86 88 90 93 96 97 97 99 102 103 104 104 101 99 98 97 96 96 97 98 100 101
49 51 52 53 54 55 57 58 59 61 61 62 62 62 63 64 65 65 66 67 69 71 72 72 73 73 74 74 77 81 83 86 89 90 90 91 91 89 86 85 85 85 85 86 86 86 87 88 91 94 97 99 98 96 95 93 92 92 94 96 97 99 99
46 47 48 48 50 51 53 54 56 57 58 59 59 60 61 62 63 63 64 65 66 68 69 69 69 70 71 72 74 76 79 83 86 87 87 87 86 83 81 81 82 82 82 81 80 79 80 82 85 89 92 94 93 92 91 89 88 89 92 94 96 96 96
44 44 45 45 47 48 49 51 53 55 55 56 56 57 58 59 60 61 62 63 64 65 66 66 67 68 68 69 70 72 75 79 82 83 83 82 81 79 77 77 79 80 79 77 77 77 78 79 82 85 87 87 87 87 87 86 86 88 91 92 93 93 93
42 42 42 44 45 46 47 48 51 52 52 52 53 54 55 55 57 58 59 60 62 62 63 63 64 65 66 67 69 70 72 75 77 78 77 77 76 75 74 74 75 76 75 74 75 76 76 77 79 81 81 81 82 83 84 84 85 87 88 90 91 91 91
39 40 41 41 42 42 44 45 47 48 48 49 50 51 51 52 53 55 57 59 59 59 60 61 62 63 65 66 67 68 69 71 72 72 72 72 72 72 71 70 72 73 73 72 73 75 75 76 77 77 77 77 78 80 81 82 83 84 85 87 88 89 90
38 38 39 38 38 39 40 42 43 43 43 44 45 46 47 48 50 53 55 57 58 57 58 59 60 61 63 65 65 65 66 67 67 68 68 69 69 69 68 68 70 71 71 71 72 73 73 73 74 73 72 73 75 77 78 78 79 79 81 83 85 86 86
37 37 36 36 36 37 38 40 40 39 38 39 40 42 43 44 47 50 53 55 55 55 56 58 58 58 61 63 62 61 63 64 64 64 65 66 66 66 65 66 68 69 69 70 70 70 70 69 69 68 69 71 72 72 73 74 75 76 77 79 81 82 82
35 35 34 33 34 35 37 37 37 36 36 37 38 39 40 41 44 48 52 52 52 53 55 56 56 57 58 60 59 58 60 61 61 62 63 63 63 63 63 65 66 66 66 67 67 67 66 66 66 66 67 68 68 67 68 70 72 73 75 77 78 79 80
33 32 32 31 31 33 34 34 33 34 35 37 37 38 39 41 43 46 48 48 48 50 53 54 54 55 57 58 57 56 58 60 59 59 60 60 60 61 62 63 63 63 64 65 65 64 63 63 64 65 64 63 64 64 65 68 70 72 74 75 76 76 76
31 30 30 29 30 31 31 31 31 33 35 36 37 38 39 41 42 43 45 45 46 48 50 51 51 52 54 55 54 55 57 58 57 56 57 58 59 61 61 62 62 62 62 62 61 61 61 61 62 61 60 60 61 61 64 67 70 72 73 73 74 73 72
29 29 29 29 30 30 29 30 31 32 34 35 36 37 38 39 40 41 42 43 45 46 47 48 48 49 51 52 52 53 55 55 54 54 55 57 59 60 61 60 59 58 58 58 58 58 58 58 58 57 57 58 59 61 64 67 69 71 72 71 70 69 69
29 29 29 29 30 29 28 29 29 30 32 33 34 35 35 36 37 38 40 41 43 45 46 47 47 47 48 49 49 50 51 52 53 53 54 57 58 59 58 56 54 54 54 55 55 55 55 55 54 54 55 56 58 61 64 67 69 70 69 67 67 66 66
28 28 29 29 29 28 27 27 27 28 29 29 30 30 31 33 34 36 38 40 42 44 46 47 47 47 47 47 48 49 50 51 52 52 53 55 55 53 52 50 50 51 51 51 51 51 51 52 52 54 55 57 59 62 65 67 67 66 65 64 64 64 63
26 27 27 27 27 26 26 26 26 26 26 26 26 27 28 29 31 33 35 37 40 42 44 45 46 47 47 48 48 49 50 50 50 49 50 50 49 48 47 47 47 47 47 48 49 49 49 50 52 54 56 58 60 62 64 63 62 62 62 61 61 61 61
23 24 24 24 24 24 24 24 25 25 24 24 24 24 25 27 29 30 32 35 37 39 41 43 44 45 46 46 47 47 47 46 46 45 45 45 44 44 44 43 43 44 46 47 47 48 49 51 53 55 57 58 59 59 59 58 58 58 58 58 58 58 59
19 20 20 21 21 22 22 23 23 23 23 23 23 24 24 26 27 29 30 32 33 35 37 38 40 41 42 42 42 42 42 42 42 41 41 40 41 41 41 41 43 44 46 46 46 47 49 51 52 54 54 55 55 54 54 54 55 56 56 56 56 56 57
16 17 17 17 18 19 20 21 21 22 22 22 22 22 23 24 25 26 27 29 30 31 32 33 35 36 37 37 38 38 38 38 38 38 38 39 40 41 41 42 43 44 44 44 45 46 48 48 49 49 50 50 50 51 52 53 53 54 54 54 55 55 55
14 14 14 15 15 16 16 17 18 19 19 19 19 20 21 22 23 24 25 26 26 27 28 29 30 32 32 33 34 34 34 35 35 36 37 39 39 40 40 40 40 40 41 42 43 43 44 44 45 46 47 48 49 50 51 51 52 52 52 52 53 54 55
12 12 12 12 13 13 13 13 14 15 15 16 16 17 18 19 21 22 23 24 24 24 25 26 27 28 29 30 31 31 31 32 34 35 36 37 37 37 37 37 37 37 38 39 40 41 42 43 44 45 47 48 49 49 49 49 49 50 50 51 52 53 53
10 10 10 10 10 10 10 10 11 12 13 13 14 15 16 17 18 19 21 21 22 23 23 24 25 26 27 27 28 29 29 31 32 32 33 33 33 34 34 35 36 36 37 38 39 40 41 43 44 45 46 46 46 46 46 46 47 48 49 50 50 50 51
10 9 9 8 8 8 7 8 9 9 10 10 11 12 13 14 15 16 17 18 19 20 21 22 23 23 24 24 25 26 27 27 28 28 29 30 31 32 33 34 35 36 37 38 39 40 41 42 42 42 43 43 43 43 44 45 45 46 46 47 48 48 50
9 8 7 6 6 5 5 6 6 6 7 8 9 9 10 11 11 12 13 14 15 17 18 18 19 20 20 21 22 23 23 24 25 26 27 29 30 31 32 33 34 35 36 37 38 39 39 39 39 39 39 40 41 42 42 43 43 44 45 46 47 48 49
8 7 5 5 4 4 4 4 4 4 5 6 7 7 8 8 8 9 10 11 12 13 14 15 16 16 17 18 19 20 21 23 24 26 27 28 29 30 31 32 33 34 35 36 36 36 36 36 36 36 37 38 39 40 40 41 42 43 44 45 47 49 50
7 6 5 3 2 2 2 2 2 2 3 4 4 5 5 6 6 7 8 9 10 11 12 13 14 15 17 18 19 20 21 22 24 25 26 27 28 29 30 31 32 32 32 32 32 32 32 33 33 34 35 36 37 39 40 41 42 44 45 47 48 50 51
7 6 4 3 2 1 1 2 2 2 3 4 4 5 5 5 6 6 7 8 9 10 11 13 14 15 16 17 18 20 21 22 23 24 25 26 26 27 28 28 29 29 29 29 29 30 30 31 33 34 35 36 38 40 41 42 44 45 46 48 48 49 50
6 5 4 3 3 3 4 4 4 4 5 5 5 5 5 5 6 6 7 7 8 9 11 12 13 14 15 16 18 19 20 21 21 22 23 23 24 25 25 25 25 26 26 27 28 29 31 32 33 35 36 38 39 41 42 43 44 45 46 47 47 48 49
6 5 5 5 5 5 5 6 6 6 6 5 5 5 5 5 5 5 5 5 6 7 9 10 11 12 13 14 15 16 17 18 18 19 20 21 21 22 23 23 24 25 26 28 29 30 32 33 35 36 37 39 40 41 42 43 44 44 45 45 46 47 47
6 5 5 6 6 6 6 6 6 6 6 5 5 5 4 4 4 3 3 3 3 4 5 7 8 9 10 11 12 13 14 15 16 17 18 19 20 21 22 23 25 26 27 28 30 31 32 34 35 36 37 39 40 40 41 42 42 43 44 44 45 46 47

ECMWFFLT1_250_spd_027.txt.gz
Wind_Speed
66 68 70 72 75 78 80 81 84 85 87 89 92 94 98 102 107 111 114 117 119 121 123 125 126 126 125 125 126 126 127 127 128 129 131 131 131 131 132 132 130 128 129 130 131 133 134 134 133 132 131 130 129 128 128 128 129 130 131 131 131 131 131
62 64 66 68 70 73 75 77 79 81 82 84 87 90 93 97 100 104 109 112 115 118 120 122 124 124 125 125 125 126 126 126 126 127 129 130 130 130 130 130 128 126 126 127 127 128 129 129 129 129 130 130 130 129 128 127 127 128 129 129 129 130 130
60 61 63 64 66 68 70 72 74 77 78 80 82 85 88 92 95 98 103 107 111 114 117 119 121 122 124 125 125 124 125 125 125 126 127 129 129 129 129 129 128 126 124 124 124 125 125 125 125 126 127 128 129 128 126 125 125 126 127 127 128 128 129
58 59 60 62 63 65 67 69 70 72 74 76 78 80 83 86 89 93 97 101 105 109 112 115 117 118 121 123 124 123 123 123 124 124 125 127 127 128 128 128 127 125 123 122 121 122 122 123 123 123 124 125 126 125 124 122 122 123 124 125 125 126 126
57 58 58 59 61 62 64 66 67 69 71 73 75 77 78 81 84 87 91 95 100 104 107 110 112 114 117 120 121 122 122 122 122 123 124 125 125 126 126 126 125 124 122 120 119 118 119 120 120 121 122 123 123 122 122 121 121 121 122 123 123 123 124
56 57 57 58 59 60 62 63 65 66 68 69 71 73 74 76 78 81 85 89 93 97 101 105 107 110 113 116 117 118 120 121 121 121 121 122 123 124 125 125 124 122 120 118 117 116 116 117 117 118 119 120 120 120 120 120 120 119 120 120 120 120 122
53 55 55 56 57 58 59 61 63 64 65 66 68 69 70 72 74 76 79 82 86 90 94 98 101 104 108 111 113 114 117 119 119 119 119 120 121 122 122 123 123 121 119 117 115 114 113 113 113 114 115 116 117 118 118 118 118 118 118 119 119 120 121
49 51 52 53 55 56 58 59 60 62 63 64 65 66 67 69 70 72 74 77 80 83 87 91 94 97 101 104 107 110 112 114 116 116 116 117 118 119 119 120 120 120 119 115 113 112 111 111 110 110 111 112 113 114 115 117 118 119 120 120 120 121 121
45 47 48 50 51 53 55 57 58 60 61 61 63 64 65 67 68 69 71 73 76 78 81 85 88 91 94 97 101 104 107 109 111 112 113 114 115 116 116 117 118 118 118 115 112 109 109 109 109 108 108 108 109 111 113 116 118 119 120 120 120 120 121
43 44 45 46 47 48 50 53 55 57 58 59 61 62 64 65 66 68 69 71 73 75 77 80 82 85 89 92 95 98 101 103 105 107 109 110 111 112 113 113 114 115 115 113 110 108 107 107 107 107 107 107 107 109 112 115 116 117 118 118 119 120 120
41 42 43 44 45 45 46 48 50 52 55 57 59 61 62 63 64 66 67 69 71 73 74 76 78 81 84 86 89 92 95 97 99 101 104 106 108 109 109 110 110 110 110 109 106 104 103 104 105 105 105 106 106 108 110 113 114 115 115 116 117 118 120
39 40 41 42 43 44 44 45 46 47 50 54 56 58 60 61 62 64 66 68 70 72 73 75 76 78 81 83 85 88 90 92 94 96 99 101 103 104 105 106 106 106 105 104 101 99 98 99 101 102 102 102 103 105 108 111 112 113 113 113 114 117 119
38 39 40 41 42 43 43 44 44 45 46 49 51 54 56 58 61 63 65 67 68 70 71 73 75 76 78 80 81 83 85 87 89 91 93 95 97 99 100 101 102 102 102 101 99 96 94 94 95 97 97 98 100 102 105 107 108 109 109 111 112 115 117
37 37 38 39 40 41 41 42 43 44 45 46 47 49 52 55 57 60 62 64 65 67 69 70 72 74 75 77 78 80 82 83 85 87 88 89 90 91 93 95 96 97 98 98 97 95 94 93 93 93 93 94 96 98 100 102 103 104 105 107 109 111 114
35 36 36 36 37 38 39 39 41 43 44 45 46 47 49 51 54 56 59 61 63 65 66 68 70 71 73 75 76 77 79 80 81 82 82 83 84 85 87 88 90 92 93 94 94 94 94 93 93 91 90 91 92 94 96 98 99 100 101 103 105 107 109
34 35 35 36 36 36 37 37 38 40 42 43 44 45 47 50 52 55 57 59 60 62 63 65 66 68 70 72 73 74 76 76 77 77 77 78 79 81 82 84 85 87 89 90 90 91 91 92 91 91 90 90 90 91 93 96 97 98 98 99 101 103 104
32 33 34 35 36 36 35 35 36 38 39 40 42 43 45 48 50 53 54 55 56 58 59 60 62 63 65 67 69 70 71 72 73 73 73 75 76 77 78 80 82 84 85 85 86 87 88 88 89 89 89 88 89 90 92 94 96 96 96 97 98 100 101
31 32 33 34 35 35 35 35 35 37 38 39 40 41 43 46 48 50 51 52 52 53 54 56 58 59 61 63 65 67 67 68 69 69 71 73 74 75 76 77 79 81 81 81 82 83 84 85 86 86 86 86 86 87 90 92 94 94 95 96 97 98 99
29 31 32 33 34 35 35 35 35 36 37 37 38 39 41 43 44 46 48 49 50 51 52 53 55 56 58 60 62 64 64 65 66 67 69 71 72 73 73 75 77 77 77 78 79 80 80 81 82 82 83 83 83 84 86 89 91 92 93 93 94 94 95
27 28 29 30 31 32 33 33 33 34 35 35 36 37 39 41 42 43 44 45 47 48 49 50 52 53 54 56 58 59 60 61 62 64 66 68 69 70 71 73 74 74 74 75 76 76 77 77 78 79 79 80 80 80 83 85 86 87 88 88 89 90 90
25 25 26 27 28 29 30 30 31 32 33 34 35 36 37 38 39 40 41 42 43 45 46 48 49 50 51 52 53 54 55 55 56 59 62 64 65 67 68 69 70 70 71 71 72 72 73 73 74 75 75 76 77 77 78 79 79 80 81 82 84 85 86
22 23 23 24 25 26 27 28 29 30 31 31 32 33 34 35 36 37 38 39 41 42 43 44 45 46 47 48 49 50 51 51 52 54 56 58 60 63 64 64 65 65 66 67 68 69 69 70 71 72 72 73 73 72 71 72 73 75 76 78 79 80 80
18 20 21 22 23 24 24 25 27 28 28 29 30 31 31 32 33 35 36 37 38 39 40 41 41 42 43 44 45 46 47 48 50 51 52 53 54 57 58 59 60 61 62 63 64 64 65 65 66 68 69 69 68 66 66 68 70 71 73 74 74 74 74
15 16 17 18 19 21 22 23 23 24 25 26 26 27 28 29 30 31 33 34 36 37 38 39 40 40 41 42 42 43 44 45 46 47 48 49 50 50 51 53 55 58 59 59 59 60 60 61 62 64 65 63 61 61 63 65 67 68 69 69 70 70 70
12 13 14 15 16 17 18 19 20 21 21 22 22 22 23 24 26 28 30 32 33 35 36 37 38 39 40 41 41 41 42 42 42 43 44 45 46 46 47 49 51 53 54 54 55 56 57 58 59 60 58 55 55 58 61 62 63 65 65 66 67 67 67
12 13 13 13 14 15 16 17 17 18 18 19 19 19 20 21 23 25 27 28 30 31 32 34 35 37 38 39 40 40 40 39 40 41 42 43 43 44 44 45 46 47 48 49 50 52 53 54 54 52 50 50 54 57 58 59 60 61 61 62 63 63 64
11 12 13 13 14 14 15 15 16 16 16 17 17 18 18 20 21 22 23 25 26 28 29 30 32 33 35 36 37 37 38 38 38 39 40 40 41 41 41 42 42 43 43 44 46 48 49 49 48 47 47 50 53 55 56 56 57 57 57 58 59 60 61
10 10 11 12 13 14 14 15 15 15 15 15 16 17 18 18 19 20 21 22 23 25 26 28 29 30 31 33 34 34 35 35 35 36 37 38 38 39 39 39 40 40 41 42 43 45 46 46 46 46 48 50 52 52 52 53 53 54 55 56 58 59 60
8 9 10 11 12 12 13 13 13 14 14 15 15 16 17 17 18 18 19 20 21 22 23 25 26 28 29 30 31 31 31 32 32 33 34 35 36 37 37 38 38 39 40 40 41 43 43 43 44 44 46 47 48 49 50 51 52 53 55 57 58 60 61
7 7 7 8 9 10 10 11 12 12 13 13 14 15 15 16 16 16 17 17 18 19 20 22 24 25 27 27 28 28 29 29 30 31 31 32 33 34 35 36 37 38 39 39 40 41 42 42 42 43 44 46 47 49 50 52 53 54 56 58 59 59 60
4 4 5 6 7 7 8 9 10 11 11 12 12 12 13 13 14 14 15 15 16 17 18 19 21 22 23 24 24 25 26 26 27 28 29 30 32 33 34 35 36 37 38 39 40 41 41 42 43 44 46 47 49 50 51 52 53 54 55 56 56 57 58
2 2 3 4 5 6 7 8 9 9 10 10 10 10 11 11 11 12 13 13 14 15 15 16 17 18 19 20 20 21 22 23 25 26 27 28 29 30 31 33 34 35 36 38 39 40 41 42 43 44 45 46 47 48 49 49 50 51 52 52 53 54 55
1 1 1 2 3 5 6 7 8 9 9 10 10 11 11 11 11 12 12 12 13 13 14 14 15 15 16 17 18 19 19 21 22 23 24 25 26 27 28 29 30 31 32 34 35 36 37 38 39 40 41 42 43 44 45 45 46 47 48 49 50 50 51
3 3 2 1 1 3 4 5 6 8 9 10 10 11 12 12 12 13 12 13 13 13 13 13 14 15 16 16 17 18 19 20 20 21 22 23 24 25 25 26 27 28 29 30 31 32 33 34 35 36 37 38 40 41 41 42 43 44 45 46 46 47 48
5 4 3 2 1 1 2 3 4 5 6 8 9 10 11 12 12 13 13 13 13 13 14 14 14 14 15 15 16 17 18 18 19 20 21 22 23 23 24 25 26 27 28 29 30 31 31 32 33 34 35 36 37 38 39 40 40 41 42 43 44 44 45
6 6 5 5 4 4 4 4 4 4 5 6 7 8 9 10 10 11 11 12 13 13 14 14 14 14 15 15 15 16 16 17 18 18 19 20 21 22 23 24 25 25 26 27 28 29 30 30 31 32 33 33 34 35 36 37 38 39 40 40 41 41 41

ECMWFFLT1_250_spd_030.txt.gz
Wind_Speed
66 67 69 70 72 74 76 78 80 82 84 87 90 93 96 99 102 105 106 107 109 112 116 120 124 127 128 128 129 129 129 128 127 127 127 129 132 135 138 140 140 140 141 143 145 145 145 145 145 145 146 147 145 143 141 139 138 139 140 140 139 138 138
63 64 66 67 69 71 72 74 75 77 80 82 85 87 90 92 95 98 102 104 106 109 111 115 118 123 126 127 127 127 128 128 128 127 127 127 128 130 133 136 138 139 140 142 144 144 145 145 145 145 146 147 147 144 141 139 139 140 140 140 140 139 139
60 62 63 64 66 68 69 71 72 74 76 79 81 83 85 87 89 92 95 99 102 105 108 110 113 117 122 125 127 127 127 128 128 127 126 126 127 127 129 132 135 136 138 140 142 143 144 145 146 146 146 147 148 146 142 140 140 140 140 140 140 140 139
57 58 60 62 64 65 67 68 70 71 73 75 77 79 81 82 84 86 89 92 96 99 103 106 108 112 116 121 124 126 126 127 128 127 126 125 125 126 127 129 131 133 134 136 138 141 142 144 144 145 146 147 148 146 143 140 139 139 139 139 139 139 139
54 55 57 59 60 62 64 66 67 68 70 72 74 76 77 79 80 82 83 86 89 93 96 99 103 107 111 116 120 123 124 126 127 128 127 126 125 124 125 127 129 130 131 133 134 136 139 140 141 143 144 145 147 145 142 139 138 138 139 139 139 139 138
51 53 54 56 57 59 61 62 64 66 67 69 70 72 74 75 77 78 79 81 83 86 89 92 97 101 106 110 114 118 121 124 125 127 127 126 125 124 124 126 127 128 129 130 131 133 134 136 137 138 140 142 144 144 142 139 138 138 138 138 139 139 138
48 50 52 53 54 55 57 59 61 63 64 66 67 69 70 72 73 75 76 78 80 81 84 86 90 95 99 103 108 113 117 121 123 124 125 126 125 124 124 124 125 126 128 128 129 130 131 132 133 134 135 137 139 140 139 137 136 135 135 136 137 138 139
45 47 48 50 51 52 54 56 58 59 60 62 64 66 68 69 70 71 73 75 77 78 80 82 85 88 92 96 101 106 111 116 120 122 123 124 124 124 123 123 123 124 125 126 127 128 129 129 130 130 131 132 134 136 135 134 133 134 134 135 136 138 139
42 44 45 46 47 49 52 54 55 56 57 58 60 62 64 66 68 69 71 72 74 76 77 79 81 83 87 90 94 99 104 109 114 117 120 121 123 123 123 122 122 122 123 124 124 125 126 127 127 128 128 130 131 133 134 134 133 133 134 134 136 137 137
40 41 43 44 46 47 49 51 52 53 53 55 57 59 62 64 66 67 68 70 71 73 75 76 78 80 82 86 89 93 97 101 106 110 114 117 120 121 121 121 120 119 120 121 121 122 123 124 125 126 127 128 130 131 133 133 132 132 133 133 134 135 134
38 39 41 42 44 45 47 48 49 49 50 52 54 57 60 62 63 65 66 67 69 70 72 73 75 77 79 81 84 88 91 95 98 102 107 111 114 117 119 119 118 118 117 118 118 119 120 121 122 124 125 127 129 130 131 131 131 130 131 132 132 133 132
36 38 39 40 41 43 44 46 46 47 48 49 52 54 57 60 61 63 64 65 67 68 69 71 73 74 76 78 81 84 87 90 93 96 100 104 107 111 114 115 116 116 116 116 116 117 118 119 120 122 124 125 127 128 129 128 128 128 128 129 129 130 129
34 36 37 38 39 40 42 43 44 45 46 47 49 51 54 56 58 60 62 64 65 66 67 68 70 72 74 75 77 80 83 86 89 92 95 98 101 104 107 110 112 113 114 115 114 114 115 117 119 121 122 123 125 126 126 126 125 125 126 126 127 127 127
32 33 35 36 37 38 39 40 42 43 44 45 47 48 50 52 54 56 59 61 62 63 64 65 67 69 71 73 75 77 79 82 84 87 90 92 95 98 101 103 106 108 110 111 111 111 112 114 117 119 121 122 122 123 123 123 123 123 123 123 123 123 123
30 31 32 33 34 35 36 37 39 41 42 43 44 46 47 50 52 54 55 57 59 60 62 63 64 66 69 71 73 74 76 78 80 82 85 87 90 92 95 98 100 102 104 106 107 107 109 110 113 115 118 119 119 119 119 120 120 120 119 119 118 118 118
29 29 30 31 31 32 33 35 37 39 40 41 42 44 46 49 50 51 52 54 56 58 60 61 62 64 66 68 70 71 73 74 76 78 80 82 85 87 89 92 94 96 98 99 100 102 103 105 107 108 111 113 115 116 116 116 116 115 115 115 115 115 114
28 29 29 29 30 31 32 33 35 36 38 39 41 43 45 47 49 50 51 53 54 55 57 58 59 61 63 64 66 68 69 71 72 74 76 78 80 83 84 87 89 91 92 93 95 97 99 100 101 103 104 107 109 111 112 113 113 112 112 113 113 113 112
27 28 29 29 30 30 31 32 33 34 36 38 40 42 44 46 48 49 50 51 52 52 53 54 56 58 60 62 64 65 66 67 69 71 73 75 77 78 80 83 85 86 88 89 90 92 94 95 97 98 100 102 103 104 106 108 109 109 109 110 109 109 108
26 27 28 28 29 30 31 31 32 33 34 36 38 40 42 45 47 47 47 48 49 50 51 52 53 55 57 59 61 62 62 64 65 67 69 71 73 74 76 79 81 82 83 84 85 86 88 90 91 93 95 97 99 100 101 102 103 105 106 106 106 105 104
25 26 27 27 28 29 29 30 31 31 32 34 36 38 40 42 43 44 45 45 46 47 49 50 51 52 54 56 57 58 58 60 61 63 66 67 68 71 73 75 76 76 77 78 79 80 83 84 85 87 89 91 92 94 96 97 98 100 101 102 102 102 100
24 25 26 26 27 28 29 30 30 30 30 31 33 34 36 38 39 41 42 43 43 44 45 46 47 49 51 53 54 55 56 57 58 60 62 64 65 68 70 70 70 71 72 72 73 75 77 78 80 81 83 85 87 90 92 93 94 95 95 96 97 97 96
22 23 24 24 25 25 26 27 28 29 29 29 30 31 32 34 35 37 38 39 40 41 42 43 45 46 47 49 51 52 54 55 55 57 58 60 62 64 64 64 65 67 67 67 69 71 73 74 75 77 79 81 83 86 87 88 89 89 89 90 91 92 92
20 21 21 22 22 23 23 24 25 26 26 27 27 28 29 31 32 34 35 37 38 39 40 41 42 43 44 45 47 49 50 52 53 54 55 58 59 59 59 61 63 63 63 64 65 67 68 69 71 73 75 78 80 81 82 83 83 84 85 86 87 89 90
18 19 20 20 20 20 21 21 22 22 23 24 25 26 27 29 30 32 33 34 35 37 38 38 39 40 41 42 44 45 46 47 48 50 52 54 55 56 57 59 60 59 59 60 60 61 63 65 66 68 71 73 74 74 75 77 78 80 81 83 85 87 88
16 17 18 18 19 19 19 19 19 20 21 22 23 24 25 26 28 29 30 31 32 34 35 36 37 38 39 40 41 42 43 44 45 46 47 49 50 52 54 55 55 55 55 55 55 56 58 60 62 64 65 66 66 67 68 71 73 75 78 80 82 82 83
14 15 16 17 18 18 18 18 18 19 20 21 22 23 23 24 25 26 27 28 30 31 32 33 34 35 36 38 39 40 40 41 42 43 43 44 45 46 48 49 50 51 51 52 52 53 54 56 57 58 57 57 58 60 63 66 69 72 74 75 76 77 77
12 13 14 15 16 16 17 18 18 18 18 19 20 20 21 22 22 23 25 26 27 29 30 31 32 33 34 35 36 37 38 39 39 40 40 40 41 41 42 43 44 46 47 47 48 49 50 51 52 52 52 53 55 58 61 63 65 67 68 69 69 70 70
10 11 11 12 13 14 15 16 16 16 17 17 18 18 19 20 21 22 23 24 25 26 28 29 30 31 32 33 34 35 35 36 36 37 37 37 38 38 39 40 41 42 43 43 43 44 45 46 48 49 50 52 54 56 58 60 61 62 63 63 63 62 63
9 9 9 10 11 11 12 13 13 14 14 15 16 16 17 18 19 20 21 22 23 24 25 26 27 29 30 30 31 32 32 33 33 34 34 35 35 36 37 37 38 40 40 41 41 41 41 42 44 47 48 50 51 52 54 55 56 58 58 57 56 56 59
10 9 9 9 9 9 10 10 11 12 13 13 14 15 15 16 16 17 18 19 20 21 22 24 25 26 27 28 29 29 29 30 31 31 32 33 33 34 35 36 37 38 39 39 39 39 39 40 41 42 44 45 46 48 49 50 51 52 51 51 52 55 57
10 10 9 9 8 8 9 9 10 10 11 11 12 13 14 14 15 15 16 16 18 19 20 21 23 24 25 25 26 26 27 27 28 29 30 31 32 32 33 34 36 37 38 38 39 38 39 39 39 40 40 41 42 44 45 45 46 47 48 50 52 54 56
10 9 9 9 8 8 8 8 9 9 10 10 11 12 12 13 13 14 15 16 17 18 19 20 21 22 22 23 24 24 25 25 26 27 27 28 29 30 31 32 33 35 36 37 38 39 39 39 39 40 40 41 41 42 43 44 45 46 48 50 51 53 55
9 9 9 8 8 8 7 7 8 8 9 9 10 11 11 12 12 13 14 15 16 17 18 19 20 20 21 22 22 23 23 23 24 24 25 26 27 27 28 29 31 32 33 35 36 38 38 39 40 40 41 41 42 43 44 45 46 47 48 50 51 53 54
8 8 8 8 8 8 7 7 7 7 7 8 9 9 10 11 11 12 12 13 14 15 16 17 19 19 20 21 22 22 23 23 23 23 23 24 24 25 25 26 27 28 30 31 33 34 36 37 38 39 40 41 42 43 44 45 45 46 47 48 49 50 50
8 8 7 7 7 7 7 6 6 6 6 6 7 7 8 9 9 10 10 11 12 12 13 15 16 17 18 19 20 21 22 22 22 23 23 23 23 23 24 24 25 26 27 27 29 30 31 32 34 35 36 38 39 40 41 41 42 43 44 45 46 47 48
9 8 8 7 7 6 6 6 5 5 5 5 5 5 5 6 7 8 8 9 9 10 10 11 12 14 15 16 17 19 19 20 21 21 21 22 22 22 23 23 24 24 25 26 27 28 29 30 31 32 33 35 36 37 38 39 41 42 43 44 45 46 47

ECMWFFLT1_250_spd_036.txt.gz
Wind_Speed
65 66 67 69 70 71 70 70 70 70 71 73 76 79 82 84 86 88 91 94 96 99 100 101 103 105 107 110 113 116 119 124 128 129 129 128 127 126 126 127 128 129 129 132 134 135 135 137 139 141 143 145 146 147 146 145 145 145 145 144 144 143 142
61 62 64 66 67 68 68 68 68 68 67 68 70 73 77 81 83 85 87 89 91 94 97 98 99 100 103 105 108 111 114 118 122 127 129 128 127 126 125 125 126 127 127 129 132 134 135 137 139 140 141 142 144 146 147 146 146 145 145 145 145 144 143
57 59 60 61 63 64 66 66 66 65 66 66 67 69 72 76 79 82 83 84 86 88 91 94 96 98 99 101 103 105 109 112 116 122 126 128 128 127 126 125 125 125 125 126 130 133 134 136 138 140 140 140 142 144 146 148 147 146 145 145 145 145 144
54 55 57 58 59 61 62 63 63 64 64 64 65 66 68 71 74 77 79 80 81 83 86 89 92 95 96 97 98 100 103 106 111 116 121 125 127 128 127 127 126 125 124 125 127 130 133 135 137 138 140 140 141 142 143 146 147 146 145 144 145 145 145
50 53 54 55 56 57 58 59 61 62 62 62 63 64 65 67 69 72 75 77 78 80 82 84 87 90 92 93 94 96 98 101 106 110 115 120 124 127 128 128 128 127 125 125 126 128 131 133 135 137 138 139 139 140 141 142 145 146 146 145 144 145 146
48 49 51 52 53 53 54 56 58 59 60 61 62 62 63 64 66 69 72 74 76 77 78 80 82 84 86 88 90 92 95 98 101 105 110 114 119 124 127 128 129 128 127 126 126 126 128 131 133 135 136 137 138 138 139 140 142 144 145 145 145 145 146
46 46 47 49 50 50 51 52 54 56 57 59 61 61 62 62 64 66 68 71 73 74 75 76 77 79 81 83 86 89 92 94 97 100 104 109 115 120 124 126 128 128 127 127 126 126 126 128 131 132 134 135 136 136 137 138 139 141 143 144 145 145 146
43 43 44 46 47 48 48 49 50 52 54 57 59 60 60 61 62 64 66 68 70 71 73 74 74 75 77 80 83 86 88 91 93 96 100 104 110 116 120 123 126 127 127 126 125 125 125 126 128 130 131 132 133 133 134 134 136 138 141 143 144 145 146
41 41 42 43 44 45 45 46 47 49 52 54 56 58 59 60 61 63 64 65 67 68 70 71 72 72 74 77 79 82 85 87 90 92 96 100 105 111 116 119 122 124 125 125 124 123 122 123 125 127 128 128 129 129 130 131 134 137 140 142 144 145 146
39 40 40 41 41 42 43 44 45 47 49 51 54 55 57 58 59 61 62 64 65 67 68 69 69 70 71 73 76 79 81 84 86 89 93 97 101 106 110 114 118 120 122 123 123 121 120 120 122 123 125 126 126 127 128 131 133 135 138 140 142 144 144
38 38 39 39 39 39 40 41 43 45 47 48 51 53 54 56 57 58 60 61 63 65 66 67 68 68 69 70 72 74 77 80 83 86 89 93 97 101 105 108 111 115 118 120 121 120 119 118 119 120 122 123 124 126 128 130 131 133 135 137 139 141 143
37 38 38 39 38 38 38 39 40 43 45 46 48 50 52 53 55 56 58 59 60 62 63 65 66 66 67 68 69 71 73 76 79 82 85 89 92 96 99 102 106 109 113 116 118 118 118 117 116 117 119 120 122 124 127 128 130 131 132 133 135 138 141
36 36 36 37 37 37 37 37 38 40 42 44 46 47 49 50 52 54 55 57 58 59 61 62 63 64 65 66 67 69 70 73 76 79 81 84 87 90 93 97 100 104 107 110 113 114 115 115 115 115 116 118 120 122 125 127 127 128 128 130 132 134 138
32 33 34 35 36 36 36 36 36 38 40 42 43 45 46 47 49 51 53 54 56 57 58 59 60 62 63 64 65 67 68 70 72 75 77 80 83 85 88 92 95 98 101 104 107 109 111 113 114 114 114 115 118 120 122 123 123 124 125 127 129 131 134
29 30 31 32 33 34 34 34 34 36 38 40 42 44 45 46 47 48 50 52 53 54 55 56 57 59 60 61 63 64 66 67 69 71 73 76 79 82 84 87 90 93 96 99 101 104 106 109 112 113 113 114 115 116 118 119 120 121 123 124 126 128 130
26 27 28 29 30 31 32 33 33 34 36 38 40 42 43 45 45 47 48 49 49 50 52 53 54 56 58 59 60 62 63 65 66 68 70 73 75 78 80 83 86 89 91 93 96 99 102 105 107 109 110 112 113 114 115 116 117 117 118 120 122 124 126
23 24 25 26 27 28 29 30 31 32 34 35 37 39 41 42 43 44 45 45 45 46 48 50 52 54 55 56 57 58 60 61 63 65 67 69 71 73 76 79 81 83 85 88 91 93 96 99 102 104 106 108 110 113 114 114 114 114 114 115 116 119 121
20 21 21 22 23 25 26 27 28 30 31 33 34 36 38 39 39 40 41 42 43 44 45 48 50 51 52 53 54 55 57 58 60 62 64 66 67 69 72 74 76 78 80 83 85 88 91 94 96 98 100 102 106 111 113 114 113 112 111 111 111 113 116
18 18 18 19 20 21 22 24 25 27 28 30 31 33 35 36 36 37 38 39 40 42 43 45 47 49 50 51 51 52 54 56 58 60 62 63 65 67 69 70 70 73 75 78 80 83 86 88 91 93 94 97 101 106 111 113 112 110 109 109 109 110 111
16 16 17 17 18 19 19 20 22 23 25 27 29 30 32 33 33 34 35 36 37 39 40 42 44 45 47 48 48 49 50 52 54 57 59 61 63 66 65 65 66 68 71 73 75 78 81 83 86 88 90 92 96 100 105 108 108 107 108 109 109 108 108
15 15 15 15 16 17 17 18 20 21 23 25 26 28 29 30 31 32 33 34 35 36 37 38 40 41 43 44 45 45 47 48 50 52 54 57 60 62 61 61 64 66 68 69 71 73 76 79 82 84 87 89 92 96 100 102 103 103 105 107 107 107 106
13 13 14 14 14 14 15 16 18 20 21 23 24 26 27 28 29 30 31 32 33 34 35 35 36 37 39 40 41 42 43 45 46 48 50 53 55 56 56 59 62 64 65 66 68 70 72 74 77 80 83 86 89 92 95 97 98 99 100 102 104 104 105
11 11 12 12 12 12 13 13 15 16 18 20 22 24 25 27 28 29 29 30 31 32 32 33 34 35 36 38 39 40 41 43 44 46 48 49 50 50 52 54 57 60 62 64 65 67 69 70 73 76 79 81 84 87 89 91 92 93 95 97 99 100 101
11 10 10 10 10 10 11 12 12 13 15 16 18 20 22 24 25 27 28 29 30 31 31 32 34 35 36 36 37 38 40 41 43 45 46 47 47 47 48 50 53 55 58 60 62 64 66 68 70 72 74 77 79 82 84 85 87 88 90 92 94 95 96
13 12 11 10 9 9 9 10 11 12 13 14 15 16 18 20 22 24 25 27 28 29 30 31 32 33 34 35 36 36 37 39 40 42 43 45 45 45 47 49 50 51 53 56 58 61 63 65 67 69 70 72 74 76 78 80 82 84 85 87 89 91 92
15 14 13 12 11 10 9 9 9 10 11 12 13 14 15 16 18 19 21 23 25 26 27 28 29 30 31 32 33 34 35 36 37 38 39 40 41 42 43 46 48 49 50 52 54 57 60 62 64 66 67 67 69 71 73 75 77 79 81 83 84 86 87
13 13 13 12 11 11 10 10 9 9 9 10 11 12 13 14 16 17 18 20 22 23 24 26 27 27 28 29 30 32 33 34 35 36 36 37 38 38 39 41 43 45 47 49 51 53 56 59 61 62 63 64 65 67 69 70 72 74 76 78 80 81 82
12 11 11 11 10 10 9 9 9 9 9 9 9 10 11 12 14 15 17 18 19 21 22 23 24 25 26 26 27 29 30 31 32 33 34 35 36 36 36 37 39 41 43 45 47 50 52 54 56 57 59 60 63 64 65 67 69 70 72 73 75 76 77
12 11 11 10 9 9 8 8 8 8 8 8 8 9 9 10 11 13 14 16 17 19 20 21 22 22 23 24 25 26 27 28 29 30 31 32 33 34 34 35 36 37 39 40 42 45 47 49 52 53 55 57 58 60 61 63 65 67 68 70 71 72 73
13 12 11 10 9 9 8 8 7 7 7 7 7 7 7 8 9 10 12 13 14 16 17 18 19 20 21 22 23 24 25 25 26 27 28 29 30 31 32 32 33 35 36 37 38 40 42 45 47 49 52 53 54 56 57 59 62 63 65 66 68 69 69
15 14 13 12 11 10 9 8 7 7 6 6 6 6 6 6 7 8 9 10 11 13 14 15 16 18 19 20 21 22 23 24 24 25 25 26 27 28 29 30 31 32 33 34 35 36 38 40 42 44 46 48 50 51 52 55 57 59 61 62 64 64 65
18 17 17 15 14 13 11 10 8 7 7 6 5 5 4 4 5 5 6 8 9 10 11 12 13 15 16 17 19 20 21 22 22 23 23 24 24 25 26 27 29 30 31 32 33 34 35 37 38 40 41 43 45 46 48 50 53 55 57 58 59 60 61
20 19 18 17 16 15 14 12 11 9 8 7 6 5 4 4 3 4 4 5 6 8 9 10 11 12 13 15 16 17 19 20 21 21 22 22 23 24 24 26 27 28 29 30 31 32 33 34 36 37 38 39 41 42 44 46 49 51 53 54 55 56 57
20 20 19 18 17 16 15 14 13 11 10 9 8 7 5 4 3 3 3 3 4 5 6 7 8 9 11 12 13 14 16 17 18 20 21 21 22 23 24 24 25 26 27 28 29 30 31 33 34 35 36 37 38 39 41 43 44 46 48 50 52 53 55
20 19 19 18 17 17 16 15 13 12 11 10 9 8 7 6 5 4 3 3 3 3 4 5 6 7 8 9 11 12 13 14 16 17 18 19 20 21 22 23 24 25 26 26 27 28 29 30 32 33 34 35 36 37 39 40 41 42 43 45 47 49 51
20 19 19 18 17 17 16 15 14 13 12 10 9 8 8 7 6 5 4 3 3 3 3 4 4 5 6 7 9 10 11 12 13 14 15 17 18 19 20 21 22 23 23 24 25 25 26 27 29 30 31 33 35 36 37 38 39 40 41 42 43 44 46

ECMWFFLT1_250_spd_039.txt.gz
Wind_Speed
60 61 62 63 64 65 67 68 69 71 72 73 75 76 78 79 81 83 85 88 90 93 96 98 99 102 104 106 109 111 112 114 116 119 122 123 125 127 127 129 131 132 131 131 133 135 137 138 139 139 139 138 137 137 138 139 140 141 143 144 144 144 143
56 57 58 59 60 62 63 64 66 67 68 70 71 73 74 76 77 79 81 83 86 89 91 93 96 98 101 103 105 107 109 111 113 115 117 118 120 122 123 124 127 129 128 129 131 133 135 137 138 138 139 139 138 138 138 139 139 140 141 143 144 144 143
52 53 54 56 57 59 60 60 62 63 65 67 68 70 72 73 74 76 78 80 82 85 87 89 92 95 97 100 101 103 105 108 111 113 114 114 115 117 119 120 122 125 127 127 128 130 133 135 137 138 138 139 139 139 139 139 140 140 140 141 143 144 144
48 50 52 53 54 55 56 57 59 61 62 63 64 65 67 68 70 72 74 76 79 82 84 86 88 91 94 96 97 99 101 104 107 109 111 111 112 112 113 115 117 120 124 126 127 128 130 132 135 136 137 138 139 140 139 139 140 141 140 140 141 143 143
46 48 50 50 50 52 54 56 58 59 59 60 60 61 61 63 64 66 69 72 75 78 80 83 85 87 90 92 93 96 99 101 103 104 106 108 109 110 110 111 112 114 119 123 126 126 127 129 131 133 135 136 138 139 138 139 140 141 141 141 140 141 141
43 46 47 46 47 49 52 54 55 56 56 57 57 57 58 59 60 62 64 67 70 73 76 79 82 85 86 88 90 93 96 98 99 100 101 103 105 107 108 109 109 110 113 118 123 125 125 126 128 130 132 134 135 137 137 138 139 140 141 141 140 139 139
41 42 42 42 44 46 48 50 52 53 54 54 55 55 55 56 57 59 60 62 65 68 71 74 78 81 83 86 88 90 92 94 96 96 97 98 100 103 105 105 106 106 108 112 118 122 124 124 125 126 128 130 133 134 135 136 137 139 139 140 139 138 137
38 38 37 38 40 43 45 47 48 50 51 52 53 53 54 54 55 56 58 59 61 64 66 69 73 77 80 83 85 87 88 90 92 93 94 95 96 98 100 101 103 104 105 107 112 118 121 123 124 124 125 127 129 131 132 133 134 135 137 138 139 138 137
35 34 34 36 38 39 41 43 45 46 48 49 51 51 52 53 53 54 56 57 59 60 62 65 69 72 76 79 82 84 85 86 87 89 91 92 94 95 96 97 99 101 102 104 107 112 117 120 123 124 124 124 125 126 128 130 132 134 135 137 138 138 138
32 32 33 34 36 37 39 40 42 43 45 46 48 49 50 50 51 52 53 55 56 58 60 62 65 68 71 75 78 80 82 82 83 84 86 89 91 92 92 93 95 96 98 101 104 108 112 117 120 122 123 123 123 124 126 129 131 133 134 135 136 137 137
30 30 31 33 35 36 37 39 40 41 43 44 45 46 47 48 49 50 51 52 54 56 58 60 62 64 67 71 74 77 78 79 80 80 82 84 86 88 89 90 91 92 94 97 100 104 108 113 116 120 122 123 123 124 125 127 129 131 132 133 134 134 134
29 29 30 31 33 35 36 37 38 39 40 41 42 44 45 46 47 48 50 50 51 53 55 57 60 62 64 67 70 73 75 76 77 78 78 80 82 84 86 87 88 89 91 93 96 100 104 109 113 117 121 123 124 124 125 126 127 129 130 131 132 132 132
27 28 29 30 31 33 34 35 36 37 38 39 40 41 42 43 45 46 48 49 50 50 52 54 57 59 62 64 66 69 71 73 74 75 76 77 78 80 82 84 85 87 88 90 92 95 100 105 110 115 118 122 124 126 126 126 127 127 128 129 130 131 132
26 27 28 28 29 31 32 33 34 35 35 36 38 39 40 41 42 44 45 46 47 49 50 51 53 56 58 61 63 65 67 69 70 71 72 74 75 77 79 81 83 85 86 88 90 92 96 101 107 111 116 120 124 127 128 128 127 127 127 127 128 129 131
24 25 26 27 27 28 30 31 32 33 34 34 35 37 38 39 40 41 42 43 45 46 48 49 50 52 55 58 60 62 64 66 67 68 69 71 73 74 76 78 80 82 84 86 87 90 93 97 102 107 112 116 121 124 126 127 127 127 127 127 127 128 129
22 23 24 25 26 27 28 29 31 32 32 32 33 34 36 37 38 39 40 41 42 44 46 47 48 50 52 54 56 59 61 63 64 66 67 69 70 72 74 76 78 80 82 83 85 87 90 93 97 102 106 111 116 120 123 125 126 126 126 125 125 125 126
21 21 22 23 24 25 27 28 29 30 31 32 32 32 34 35 36 37 38 40 41 42 44 45 47 48 49 51 53 55 58 60 62 64 65 67 68 69 71 74 75 77 79 81 83 85 88 91 94 97 101 106 111 115 119 121 123 124 124 124 124 124 125
19 20 21 21 22 23 25 25 27 28 30 30 31 31 32 33 34 35 37 38 40 41 42 43 45 46 48 50 51 53 55 58 60 62 63 65 66 67 69 70 71 73 75 77 79 82 84 87 90 93 97 101 105 109 113 116 119 121 123 124 124 124 124
17 18 19 20 21 22 23 24 25 26 27 28 29 29 30 31 32 33 35 36 38 39 40 41 43 44 46 48 49 51 53 55 57 59 60 62 64 65 66 67 68 70 72 74 76 79 81 84 86 89 92 96 99 103 107 111 114 118 121 122 122 122 122
15 16 17 18 19 20 21 22 23 24 25 26 27 27 27 28 30 31 32 34 35 36 38 40 41 42 44 45 47 49 50 52 54 56 57 59 61 63 63 63 65 68 70 71 73 76 78 81 83 85 88 91 94 97 101 105 109 113 116 118 119 120 120
14 14 15 15 16 17 19 20 21 23 24 25 25 25 25 26 27 28 30 31 33 34 35 37 38 39 40 42 44 46 47 49 51 53 54 56 58 59 59 61 63 65 67 69 71 73 75 77 80 82 85 87 90 93 96 99 103 107 110 113 115 116 117
13 14 14 14 15 15 16 17 19 20 22 23 24 25 25 25 25 26 27 29 30 32 33 35 36 37 38 39 41 43 45 47 48 50 52 53 54 55 57 59 61 62 64 66 68 70 72 74 77 79 81 83 86 88 91 93 96 99 102 105 107 109 110
13 13 13 13 14 14 14 15 17 18 19 21 22 23 24 24 25 25 26 27 29 30 31 33 35 36 37 38 39 41 43 45 47 49 50 51 52 53 55 56 58 59 62 64 66 68 70 72 74 77 78 80 82 84 86 88 90 92 94 96 98 100 103
13 13 12 12 13 13 14 14 15 16 17 18 20 21 22 23 24 24 25 26 27 28 30 31 32 34 35 36 38 39 41 43 45 47 48 49 50 50 52 53 55 56 58 61 63 66 68 69 71 73 75 77 78 80 81 84 86 87 89 91 92 94 96
16 14 13 12 12 12 12 13 14 15 16 17 18 19 20 20 21 22 23 24 25 27 28 28 30 31 32 33 35 37 38 41 42 44 46 47 48 48 49 51 53 54 56 58 60 62 64 65 67 69 71 72 74 76 78 80 82 84 85 87 88 90 92
17 16 15 13 12 11 11 12 13 14 15 16 17 17 18 19 19 20 21 22 23 24 26 27 28 29 30 31 32 33 35 37 39 41 43 45 46 46 47 49 51 53 54 55 57 59 60 62 63 64 66 67 70 72 75 77 79 81 82 84 85 86 88
16 16 15 14 13 12 12 12 12 12 13 14 15 16 17 18 18 19 20 21 21 22 23 24 25 27 28 29 30 31 32 34 36 38 40 42 43 44 45 47 50 52 53 54 55 56 58 60 61 62 63 64 66 69 71 74 76 78 79 81 82 83 85
15 15 14 14 13 12 12 12 12 12 12 12 13 14 16 17 17 18 19 20 20 21 22 23 24 24 25 26 27 28 29 30 32 34 37 39 41 42 43 45 48 50 51 52 53 55 56 58 59 60 61 62 63 65 68 70 72 74 76 78 79 81 82
15 14 14 13 13 12 11 11 12 12 11 11 11 12 13 15 16 17 18 19 20 20 21 22 22 23 24 24 25 26 26 27 29 30 33 35 37 39 40 41 44 46 48 49 51 53 54 55 56 58 59 60 61 63 65 67 69 71 73 75 76 78 80
15 14 14 13 13 12 11 11 11 11 11 11 10 11 11 13 14 15 17 18 19 19 20 20 21 21 22 23 23 24 25 26 27 28 29 31 33 35 36 38 39 42 44 46 48 49 51 53 54 55 56 57 58 60 62 64 66 67 69 71 73 75 77
16 15 14 13 13 12 12 11 11 11 11 10 10 10 10 11 12 13 15 16 17 17 18 18 19 20 20 21 22 23 23 24 25 27 28 29 30 32 33 34 36 38 40 42 44 46 48 49 51 53 54 55 56 57 58 60 61 63 65 68 71 73 74
19 17 16 15 14 13 12 11 11 10 10 10 10 9 9 9 10 11 13 14 15 15 16 16 17 18 18 19 20 20 21 22 24 25 26 27 29 30 31 32 33 34 36 38 40 42 44 46 47 49 51 52 53 54 55 56 57 59 61 64 66 68 69
21 19 18 17 15 14 13 12 11 11 10 10 9 9 8 8 9 10 11 12 13 14 14 14 15 16 16 17 18 19 19 20 21 22 23 24 26 27 28 30 31 32 33 35 36 38 40 42 43 45 47 49 50 51 52 53 54 55 57 59 61 61 62
23 21 20 18 17 16 14 13 12 12 11 10 10 9 9 8 7 8 9 10 11 12 13 13 13 14 14 15 16 17 17 18 18 19 20 21 22 23 25 26 28 29 31 32 33 35 37 38 40 41 43 45 46 48 49 50 51 52 54 55 56 57 58
23 22 21 19 18 17 16 14 13 12 12 11 11 10 10 9 7 7 7 8 9 10 11 11 12 12 13 13 14 14 15 16 16 17 17 18 19 21 22 23 25 26 28 29 31 32 34 35 36 38 39 41 42 44 45 46 48 49 50 51 52 53 55
23 22 21 20 19 18 17 16 14 13 12 11 10 10 10 9 8 7 6 6 7 8 9 10 10 11 11 12 13 13 14 14 15 16 16 17 18 19 20 21 23 24 26 27 28 30 31 32 33 35 36 38 39 40 42 43 44 45 47 48 49 50 52